Location: Unspecified
(0.0000°N, 0.0000°E)
Time: 07:26:44
(UTC+00:00)

Vanguard 2 Rocket - Pass Details

Date: 04 October 2023
Orbit: 552 x 3312 km, 32.9° (Epoch: 06 December)

Event Time Altitude Azimuth Distance (km) Brightness Sun altitude
Rises 07:35:02 0° 267° (W) 4,132 9.7 26.5°
Reaches altitude 10° 07:37:47 10° 278° (W) 3,484 9.4 27.1°
Maximum altitude 07:45:57 32° 338° (NNW) 2,961 9.5 29.2°
Drops below altitude 10° 07:58:52 10° 35° (NE) 5,517 11.4 32.4°
Sets 08:04:47 0° 44° (NE) 6,896 11.9 33.9°
